Probability
0 0 0 0 0 0 0 0 0 0 0 0 0 0 0 0 0 0 0 0 0 0 0 0 0 0 0 0 0 0 0 0 0 0 0 0 0 0 0 0 0 0 0 0
0 0 0 0 0 0 0 0 0 0 0 0 0 0 0 0 0 0 0 0 0 0 0 0 0 0 0 0 0 0 0 0 0 0 0 0 0 0 0 0 0 0 0 0
0 0 0 0 0 0 0 0 0 0 0 0 0 0 0 0 0 0 0 0 0 0 0 0 0 0 0 0 0 0 0 0 0 0 0 0 0 0 0 0 0 0 0 0
0 0 0 0 0 0 0 0 0 0 0 0 0 0 0 0 0 0 0 0 0 0 0 0 0 0 0 0 0 0 0 0 0 0 0 0 0 0 0 0 0 0 0 0
0 0 0 0 0 0 0 0 0 0 0 0 0 0 0 0 0 0 0 0 0 0 0 0 0 0 0 0 0 0 0 0 0 0 0 0 0 0 0 0 0 0 0 0
0 0 0 0 0 0 0 0 0 0 0 0 0 0 0 0 0 0 0 0 0 0 0 0 0 0 0 0 0 0 0 0 0 0 0 0 0 0 0 0 0 0 0 0
0 0 0 0 0 0 0 0 0 0 0 0 0 0 0 0 0 0 0 0 0 0 0 0 0 0 0 0 0 0 0 0 0 0 0 0 0 0 0 0 0 0 0 0
0 0 0 0 0 0 0 0 0 0 0 0 0 0 0 0 0 0 0 0 0 0 0 0 0 0 0 0 0 0 0 0 0 0 0 0 0 0 0 0 0 0 0 0
0 0 0 0 0 0 0 0 0 0 0 0 0 0 0 0 0 0 0 0 0 0 0 0 0 0 0 0 0 0 0 0 0 0 0 0 0 0 0 0 0 0 0 0
0 0 0 0 0 0 0 0 0 0 0 0 0 0 0 0 0 0 0 0 0 0 0 0 0 0 0 0 0 0 0 0 0 0 0 0 0 0 0 0 0 0 0 0
0 0 0 0 0 0 0 0 0 0 0 0 0 0 0 0 0 0 0 0 0 0 0 0 0 0 0 0 0 0 0 0 0 0 0 0 0 0 0 0 0 0 0 0
0 0 0 0 0 0 0 0 0 0 0 0 0 0 0 0 0 0 0 0 0 0 0 0 0 0 0 0 0 0 0 0 0 0 0 0 0 0 0 0 0 0 0 0
0 0 0 0 0 0 0 0 0 0 0 0 0 0 0 0 0 0 0 0 0 0 0 0 0 0 0 0 0 0 0 0 0 0 0 0 0 0 0 0 0 0 0 0
0 0 0 0 0 0 0 0 0 0 0 0 0 0 0 0 0 0 0 0 0 0 0 0 0 0 0 0 0 0 0 0 0 0 0 0 0 0 0 0 0 0 0 0
0 0 0 0 0 0 0 0 0 0 0 0 0 0 0 0 0 0 0 0 0 0 0 0 0 0 0 0 0 0 0 0 0 0 0 0 0 0 0 0 0 0 0 0
0 0 0 0 0 0 0 0 0 0 0 0 0 0 0 0 0 0 0 0 0 0 0 0 0 0 0 0 0 0 0 0 0 0 0 0 0 0 0 0 0 0 0 0
0 0 0 0 0 0 0 0 0 0 0 0 0 0 0 0 0 0 0 0 0 0 0 0 0 0 0 0 0 0 0 0 0 0 0 0 0 0 0 0 0 0 0 0
0 0 0 0 0 0 0 0 0 0 0 0 0 0 0 0 0 0 0 0 0 0 0 0 0 0 0 0 0 0 0 0 0 0 0 0 0 0 0 0 0 0 0 0
0 0 0 0 0 0 0 0 0 0 0 0 0 0 0 0 0 0 0 0 0 0 0 0 0 0 0 0 0 0 0 0 0 0 0 0 0 0 0 0 0 0 0 0
0 0 0 0 0 0 0 0 0 0 0 0 0 0 0 0 0 0 0 0 0 0 0 0 0 0 0 0 0 0 0 0 0 0 0 0 0 0 0 0 0 0 0 0
0 0 0 0 0 0 0 0 0 0 0 0 0 0 0 0 0 0 0 0 0 0 0 0 0 0 0 0 0 0 0 0 0 0 0 0 0 0 0 0 0 0 0 0
0 0 0 0 0 0 0 0 0 0 0 0 0 0 0 0 0 0 0 0 0 0 0 0 0 0 0 0 0 0 0 0 0 0 0 0 0 0 0 0 0 0 0 0
0 0 0 0 0 0 0 0 0 0 0 0 0 0 0 0 0 0 0 0 0 0 0 0 0 0 0 0 0 0 0 0 0 0 0 0 0 0 0 0 0 0 0 0
0 0 0 0 0 0 0 0 0 0 0 0 0 0 0 0 0 0 0 0 0 0 0 0 0 0 0 0 0 0 0 0 0 0 0 0 0 0 0 0 0 0 0 0
0 0 0 0 0 0 0 0 0 0 0 0 0 0 0 0 0 0 0 0 0 0 0 0 0 0 0 0 0 0 0 0 0 0 0 0 0 0 0 0 0 0 0 0
0 0 0 0 0 0 0 0 0 0 0 0 0 0 0 0 0 0 0 0 0 0 0 0 0 0 0 0 0 0 0 0 0 0 0 0 0 0 0 0 0 0 0 0
0 0 0 0 0 0 0 0 0 0 0 0 0 0 0 0 0 0 0 0 0 0 0 0 0 0 0 0 0 0 0 0 0 0 0 0 0 0 0 0 0 0 0 0
Height
5627 5626 5624 5624 5623 5621 5619 5618 5616 5616 5615 5614 5612 5610 5609 5609 5609 5609 5609 5608 5608 5608 5609 5609 5609 5609 5610 5610 5611 5611 5611 5611 5611 5611 5612 5613 5614 5615 5616 5617 5620 5622 5625 5627
5621 5619 5618 5617 5617 5615 5614 5612 5611 5609 5609 5608 5605 5604 5603 5602 5602 5602 5602 5601 5601 5601 5601 5601 5601 5601 5601 5601 5601 5601 5601 5601 5601 5601 5601 5602 5603 5604 5605 5606 5607 5610 5612 5615
5614 5613 5611 5611 5611 5609 5608 5607 5605 5603 5604 5602 5600 5598 5597 5596 5596 5595 5595 5595 5595 5594 5594 5594 5593 5593 5592 5592 5592 5592 5591 5591 5591 5591 5592 5592 5593 5593 5594 5595 5596 5598 5600 5603
5607 5607 5605 5608 5605 5603 5602 5601 5599 5598 5597 5595 5593 5592 5591 5590 5590 5590 5589 5589 5588 5587 5587 5586 5585 5585 5584 5584 5583 5583 5582 5582 5582 5582 5583 5583 5583 5583 5583 5584 5585 5587 5589 5591
5601 5599 5599 5600 5598 5596 5595 5595 5593 5591 5590 5589 5587 5586 5586 5585 5584 5584 5584 5583 5582 5581 5580 5580 5578 5577 5577 5575 5574 5574 5574 5573 5573 5574 5574 5573 5573 5573 5574 5574 5575 5576 5578 5580
5594 5593 5593 5594 5591 5589 5589 5588 5587 5585 5584 5583 5581 5581 5582 5579 5579 5578 5577 5577 5576 5574 5573 5573 5571 5570 5569 5568 5566 5566 5565 5565 5564 5564 5565 5564 5565 5565 5564 5565 5565 5566 5568 5569
5588 5586 5586 5586 5584 5582 5582 5582 5580 5578 5577 5576 5575 5575 5575 5573 5573 5572 5571 5570 5568 5567 5566 5566 5564 5563 5561 5560 5559 5557 5556 5556 5556 5556 5556 5556 5555 5555 5555 5555 5555 5556 5557 5557
5581 5580 5582 5579 5577 5576 5575 5573 5572 5570 5570 5569 5568 5568 5567 5566 5566 5565 5564 5563 5561 5560 5559 5558 5557 5555 5554 5552 5551 5549 5549 5548 5547 5547 5547 5547 5546 5546 5546 5546 5546 5546 5546 5547
5576 5576 5573 5571 5569 5568 5567 5566 5564 5563 5563 5562 5561 5560 5560 5559 5558 5557 5556 5555 5554 5553 5552 5550 5549 5547 5546 5544 5542 5541 5540 5539 5538 5538 5538 5537 5537 5537 5537 5536 5536 5536 5536 5536
5568 5567 5565 5563 5562 5560 5559 5558 5557 5556 5556 5555 5554 5553 5552 5551 5550 5549 5548 5547 5546 5544 5543 5542 5540 5539 5537 5536 5534 5533 5532 5531 5530 5529 5529 5528 5528 5528 5527 5527 5527 5527 5526 5526
5559 5559 5557 5556 5554 5553 5551 5550 5549 5548 5548 5547 5546 5546 5544 5543 5542 5541 5540 5539 5537 5536 5535 5534 5532 5530 5529 5527 5526 5524 5523 5522 5521 5520 5520 5519 5519 5518 5518 5517 5517 5517 5516 5516
5551 5550 5548 5548 5546 5545 5543 5543 5541 5540 5539 5538 5538 5537 5536 5535 5533 5532 5531 5529 5528 5527 5526 5525 5523 5522 5520 5519 5517 5516 5515 5514 5513 5513 5512 5511 5510 5509 5508 5507 5507 5506 5506 5505
5542 5540 5539 5539 5537 5536 5535 5534 5533 5532 5531 5530 5529 5527 5526 5525 5524 5523 5521 5520 5519 5518 5516 5515 5514 5513 5511 5510 5509 5507 5506 5506 5505 5503 5503 5502 5501 5500 5499 5498 5497 5496 5496 5495
5532 5531 5530 5529 5528 5527 5526 5525 5524 5523 5522 5521 5519 5518 5517 5515 5514 5513 5511 5510 5509 5507 5506 5505 5504 5503 5501 5500 5499 5498 5497 5496 5495 5494 5493 5492 5491 5490 5489 5488 5488 5487 5486 5485
5523 5521 5521 5520 5519 5518 5517 5516 5515 5514 5512 5511 5510 5508 5507 5506 5504 5503 5501 5500 5498 5497 5496 5495 5494 5493 5491 5490 5489 5488 5487 5486 5485 5484 5483 5482 5481 5480 5479 5478 5478 5477 5477 5476
5513 5512 5511 5511 5510 5508 5507 5506 5505 5504 5503 5502 5500 5499 5497 5496 5495 5493 5491 5490 5489 5487 5486 5485 5483 5482 5481 5480 5479 5478 5477 5475 5475 5474 5473 5472 5471 5470 5469 5468 5467 5467 5467 5466
5504 5503 5502 5501 5500 5498 5497 5496 5495 5494 5492 5491 5490 5489 5488 5486 5485 5483 5481 5480 5478 5477 5476 5475 5473 5472 5471 5470 5469 5468 5467 5466 5465 5464 5463 5462 5461 5460 5459 5458 5458 5457 5457 5456
5494 5493 5492 5491 5490 5489 5487 5486 5485 5484 5482 5481 5480 5479 5478 5476 5475 5473 5471 5470 5468 5467 5465 5464 5463 5462 5461 5460 5459 5458 5457 5456 5455 5454 5453 5452 5451 5450 5449 5449 5448 5447 5447 5446
5484 5483 5483 5482 5480 5479 5478 5476 5475 5473 5472 5471 5470 5469 5467 5466 5464 5463 5461 5460 5458 5457 5455 5454 5453 5452 5451 5450 5449 5448 5447 5446 5446 5445 5443 5442 5441 5440 5440 5439 5438 5437 5437 5436
5474 5473 5472 5471 5470 5469 5467 5466 5465 5463 5462 5461 5460 5458 5457 5455 5454 5452 5450 5449 5448 5446 5445 5444 5443 5442 5441 5440 5439 5439 5438 5437 5436 5435 5434 5433 5432 5431 5430 5429 5429 5428 5427 5427
5464 5463 5462 5461 5460 5458 5457 5456 5454 5453 5452 5450 5449 5448 5446 5444 5443 5441 5440 5439 5438 5436 5435 5434 5433 5433 5432 5431 5430 5429 5428 5427 5427 5426 5425 5424 5423 5422 5421 5420 5419 5419 5418 5417
5454 5453 5452 5451 5449 5448 5447 5445 5444 5443 5441 5440 5438 5437 5435 5434 5432 5431 5429 5428 5427 5426 5425 5424 5423 5423 5422 5421 5420 5420 5419 5418 5417 5416 5416 5415 5414 5413 5412 5411 5411 5410 5409 5409
5444 5443 5442 5440 5439 5438 5436 5435 5433 5432 5430 5429 5427 5426 5424 5423 5421 5420 5420 5418 5417 5416 5415 5414 5413 5412 5412 5411 5411 5410 5410 5409 5408 5407 5406 5406 5405 5404 5403 5403 5402 5402 5401 5401
5433 5432 5431 5430 5428 5427 5426 5424 5422 5421 5419 5418 5416 5415 5413 5412 5411 5410 5409 5408 5407 5406 5405 5404 5403 5403 5402 5402 5402 5401 5400 5400 5399 5398 5397 5397 5396 5396 5395 5395 5394 5394 5394 5393
5422 5421 5420 5419 5417 5416 5415 5413 5411 5410 5408 5406 5405 5403 5402 5401 5400 5399 5398 5398 5397 5396 5395 5395 5394 5393 5393 5392 5392 5391 5391 5390 5390 5389 5389 5389 5388 5388 5388 5387 5387 5387 5387 5386
5411 5410 5409 5408 5407 5405 5404 5402 5400 5398 5397 5395 5394 5392 5391 5390 5389 5389 5388 5388 5387 5386 5386 5385 5385 5384 5384 5383 5383 5382 5382 5382 5381 5381 5381 5381 5381 5381 5381 5380 5380 5380 5380 5380
5401 5400 5399 5398 5396 5395 5393 5391 5390 5388 5386 5385 5383 5382 5381 5380 5379 5379 5378 5378 5377 5377 5377 5376 5376 5375 5375 5374 5374 5374 5374 5374 5373 5373 5373 5373 5373 5373 5373 5373 5373 5373 5373 5373
Wind_Speed
23 23 24 24 23 23 23 23 23 22 22 21 23 23 22 23 23 23 23 25 27 28 29 31 31 33 32 34 36 37 38 38 40 42 41 41 42 42 44 45 45 45 45 44
21 22 23 23 23 23 22 22 22 23 21 20 22 23 22 23 23 23 23 23 24 26 27 29 30 32 32 33 35 37 37 37 38 39 39 40 41 41 43 44 45 44 44 43
21 21 22 23 22 22 22 22 22 22 21 20 21 22 22 22 21 22 22 23 23 24 26 28 30 32 33 34 34 34 35 36 37 38 39 39 40 41 42 42 43 44 43 43
21 22 22 22 23 22 22 22 22 22 21 20 20 21 21 21 22 21 21 22 23 24 25 28 29 31 32 34 34 34 34 35 35 36 38 39 40 40 40 41 42 42 42 42
22 22 22 22 23 23 23 22 22 22 21 20 20 20 20 21 21 21 21 22 23 24 25 26 28 30 31 32 33 33 34 34 35 35 36 37 38 39 40 41 41 42 43 43
23 23 23 23 23 23 24 23 22 22 21 20 19 19 19 21 22 23 23 23 24 25 25 26 27 28 29 30 31 32 32 33 34 35 36 36 36 38 39 39 39 41 42 43
23 24 24 24 24 24 25 24 23 22 22 21 21 21 21 22 23 25 25 25 25 25 26 27 28 29 30 29 29 30 32 32 34 34 34 35 35 36 37 38 38 39 40 41
24 25 25 25 25 25 24 24 23 23 22 22 23 23 24 24 25 26 26 26 26 26 27 27 28 29 30 29 29 30 30 31 33 34 34 34 34 34 35 36 37 37 39 39
24 25 26 26 26 25 24 24 23 23 23 24 24 24 25 25 26 27 27 28 28 28 28 28 28 29 29 29 29 30 30 30 31 32 32 33 33 34 34 34 35 36 37 38
25 25 26 26 25 25 25 25 25 25 25 26 26 26 26 27 28 28 28 29 29 29 29 28 28 28 29 29 29 29 28 29 30 31 32 33 34 34 34 34 35 36 37 37
26 26 26 26 26 26 27 27 27 28 28 28 28 28 28 29 29 30 30 29 29 29 29 30 29 30 30 29 29 29 29 29 29 29 30 32 33 33 34 34 35 35 36 36
27 27 28 27 28 28 28 28 28 29 29 30 30 31 31 31 31 31 31 30 30 30 30 30 30 29 29 30 29 29 28 28 28 28 29 30 31 32 33 34 34 35 35 36
29 29 30 29 29 29 29 29 29 30 30 31 32 32 32 32 32 32 32 32 32 31 31 31 30 30 30 30 31 30 30 30 29 30 30 31 31 31 32 33 34 34 34 35
30 31 30 30 30 30 30 30 31 31 31 31 31 31 32 32 33 33 33 33 33 33 33 32 32 32 32 31 31 31 31 31 31 32 32 32 31 32 32 32 32 32 32 33
31 31 31 30 31 31 32 32 32 32 32 32 31 32 32 32 32 32 33 32 33 33 33 33 33 32 32 32 32 32 32 32 32 32 32 32 32 32 32 32 31 31 31 31
31 31 30 30 30 31 32 32 32 32 32 32 32 32 32 32 32 32 32 32 32 32 32 32 32 32 32 31 32 31 31 31 31 31 32 32 31 31 31 31 31 31 31 30
30 30 29 29 29 30 31 31 32 32 32 32 32 32 32 32 32 31 31 31 31 31 31 31 31 31 31 30 30 30 30 30 30 30 30 30 30 30 30 30 30 31 31 30
30 30 30 29 29 30 30 30 31 31 31 31 32 31 31 31 31 31 32 32 31 31 31 31 31 30 30 29 29 29 29 29 29 29 29 29 30 29 29 30 30 30 30 30
30 30 30 30 30 30 30 30 30 31 31 31 31 31 30 31 31 31 32 32 31 31 30 30 29 29 29 28 28 28 27 28 28 28 28 28 28 28 29 29 29 29 29 29
29 30 30 30 30 30 30 30 30 30 30 31 31 31 31 31 31 31 31 31 31 31 30 29 29 28 28 28 28 28 27 28 28 28 28 28 28 28 28 28 28 28 28 28
29 30 30 30 30 30 31 31 31 31 31 31 31 31 31 31 31 31 31 31 31 31 31 30 30 29 29 29 29 28 28 28 28 28 28 28 28 28 28 28 27 27 26 26
30 30 30 30 30 30 31 31 31 31 32 32 32 32 32 32 31 30 30 30 30 30 30 30 30 29 29 29 29 28 28 28 28 28 28 27 27 27 27 26 25 25 24 24
31 30 30 30 30 30 31 32 32 33 32 32 32 32 32 31 31 30 30 30 30 30 30 30 30 29 29 29 29 29 29 28 28 28 28 27 27 26 25 24 24 24 24 23
30 31 31 30 31 31 31 31 32 33 33 33 33 33 32 31 31 30 30 30 29 29 29 29 29 29 29 29 29 29 28 28 28 28 27 26 25 24 23 23 23 22 22 22
30 29 29 29 30 30 31 31 31 32 33 33 33 33 33 32 31 30 30 29 29 29 29 29 28 28 28 28 28 28 27 26 26 25 25 24 23 23 22 21 21 21 21 20
30 30 30 30 30 30 30 30 30 31 31 31 32 32 32 31 31 30 29 29 29 28 28 28 27 27 27 26 26 25 25 24 24 24 24 23 22 22 21 21 20 20 19 19
28 29 29 30 30 29 29 30 30 30 30 29 29 30 29 29 28 28 28 28 27 26 26 26 26 25 25 24 24 23 23 23 22 22 21 21 21 21 20 20 19 19 19 19
Wind_Direction
280 280 279 280 282 282 283 285 286 288 286 285 282 277 272 269 268 266 264 264 261 259 259 257 257 258 257 257 259 260 261 261 260 258 258 259 260 261 259 259 259 260 260 262
278 279 279 278 279 281 282 284 285 287 289 288 283 277 272 271 269 267 265 264 262 261 263 261 260 261 260 261 263 263 264 263 260 258 258 259 260 261 261 261 261 260 261 264
279 282 281 280 280 282 283 284 285 285 289 289 283 278 274 271 269 268 264 264 265 266 266 265 265 266 265 263 265 266 265 265 262 258 259 259 261 263 263 262 261 261 262 264
282 282 282 283 281 282 283 284 286 287 289 288 283 278 274 271 270 268 265 266 269 269 269 269 269 269 269 267 267 267 267 267 265 263 263 263 263 263 263 261 260 260 263 265
281 282 283 283 283 283 283 284 287 287 287 287 283 278 275 273 272 270 270 272 274 272 271 272 272 273 273 273 270 270 269 267 265 264 265 266 265 264 264 263 261 261 263 264
280 284 286 286 284 283 284 285 285 285 285 285 281 278 277 275 274 274 274 277 278 277 275 274 274 276 277 277 274 272 270 267 265 264 265 266 266 265 264 263 264 264 263 264
279 283 286 287 287 285 286 286 282 282 282 282 282 280 279 278 278 278 276 278 280 278 278 278 277 277 278 278 275 274 271 268 265 265 266 267 268 268 267 266 265 265 264 264
280 281 284 286 286 286 285 283 280 280 280 281 281 280 280 281 280 279 278 278 279 278 278 278 278 278 277 276 276 276 273 270 268 268 268 269 270 271 271 269 266 265 264 265
279 282 284 284 284 283 282 282 280 278 279 281 282 282 281 281 281 281 279 279 280 279 279 278 279 279 278 278 277 276 274 274 272 270 268 269 272 272 272 272 269 267 266 267
279 281 282 282 281 281 279 278 277 275 276 279 282 283 283 283 283 283 282 281 281 281 281 282 281 279 279 279 278 277 275 275 275 272 270 269 271 272 272 272 271 270 269 269
278 280 280 278 278 278 278 276 275 275 276 278 280 283 284 285 284 283 283 282 280 279 280 281 282 281 279 279 279 278 277 276 276 275 272 271 271 273 272 272 272 272 272 271
276 277 278 278 276 276 275 275 276 276 277 279 280 282 283 284 284 285 284 282 281 281 280 279 279 281 280 279 279 278 277 277 276 275 274 273 273 273 273 273 272 271 271 272
275 275 276 277 277 275 275 275 276 276 277 278 280 281 283 283 284 284 283 282 280 280 279 278 278 278 279 278 278 277 277 276 275 275 274 274 274 274 274 273 272 271 271 272
274 275 275 276 275 274 275 276 276 276 276 277 279 281 282 283 283 283 282 282 281 280 279 278 277 277 277 277 276 276 276 275 273 273 274 274 273 273 273 272 270 270 271 273
274 274 274 275 274 274 276 276 276 277 277 278 280 282 283 284 284 284 282 282 281 280 279 278 277 277 276 276 275 275 275 275 274 273 274 274 274 273 273 271 270 270 270 272
274 274 274 275 275 274 275 276 277 278 279 279 280 282 282 283 283 283 283 282 281 280 279 278 277 277 276 275 275 275 275 275 274 273 274 274 274 274 273 270 269 270 271 271
275 275 275 275 275 276 277 277 277 278 279 279 279 281 281 281 281 281 281 281 281 280 279 278 277 277 276 276 274 274 274 275 275 275 274 273 273 273 273 273 271 270 270 270
275 275 276 277 277 277 278 278 278 278 279 280 280 280 281 282 282 280 279 281 281 281 279 278 277 276 275 275 275 274 274 275 276 276 275 274 273 273 273 273 272 271 270 271
275 276 277 278 278 277 278 279 279 279 279 279 280 280 280 282 283 282 280 279 280 280 280 278 277 276 276 275 275 275 275 276 276 276 275 274 274 274 275 274 274 273 271 272
275 277 278 278 278 278 278 279 280 281 281 281 281 281 281 282 283 283 281 278 278 277 276 276 275 275 276 276 276 276 276 276 276 277 277 276 276 276 276 276 275 273 272 272
277 277 279 278 278 278 278 279 280 281 282 282 283 282 282 283 282 281 279 277 276 276 275 274 274 273 274 275 276 276 277 277 277 277 277 277 276 276 276 276 275 274 273 272
278 279 280 281 280 279 279 279 280 281 282 283 284 284 283 283 281 279 278 277 276 275 275 274 273 273 274 275 276 276 277 277 277 277 277 277 277 277 276 274 274 274 272 271
277 278 279 280 282 282 280 280 280 281 282 283 283 284 284 283 281 279 279 278 277 276 276 275 274 273 273 273 274 275 277 277 276 276 276 276 276 276 274 273 273 273 272 271
277 278 278 280 282 282 282 282 282 281 282 283 283 282 282 282 280 280 279 279 278 277 277 276 275 275 275 274 275 275 276 276 276 275 275 275 274 273 273 273 273 272 271 271
278 279 281 282 283 284 283 283 283 282 282 281 281 281 280 279 279 279 279 279 278 278 277 277 277 276 276 276 276 276 275 275 275 273 272 271 271 272 272 271 271 271 271 271
281 281 282 283 284 285 285 286 286 285 283 281 280 279 278 276 276 277 277 278 277 277 276 276 276 276 276 276 276 275 273 273 273 272 269 268 268 270 270 270 268 268 270 270
283 283 282 283 284 285 286 287 287 286 285 284 282 279 277 276 276 276 275 275 275 275 275 275 275 274 274 274 273 273 272 271 270 269 268 267 267 268 267 266 265 266 268 269